Terminal Aerodrome Forecast
Issued by NWS Pittsburgh, PA

Current Version | Previous Version | Graphics & Text | Print | Product List | Glossary On
Versions: 1 2 3 4 5 6 7 8 9 10 11 12 13 14 15 16 17 18 19 20 21 22 23 24 25 26 27 28 29 30
000
FTUS41 KPBZ 271737
TAFPIT
TAF
KPIT 271737Z 2718/2824 25012G18KT P6SM SKC
     FM280000 19004KT P6SM SKC
     FM282200 12008KT P6SM VCSH BKN080=

USA.gov is the U.S. government's official web portal to all federal, state and local government web resources and services.